Regional Weather Roundup
Issued by NWS

Home | Current Version | Previous Version | Text Only | Print | Product List | Glossary Off
Versions: 1 2 3 4 5 6 7 8 9 10 11 12 13 14 15 16 17 18 19 20 21 22 23 24 25 26 27 28 29 30 31 32 33 34 35 36 37 38 39 40 41 42 43 44 45 46 47 48 49 50

000
ASUS43 KOAX 131010
RWRNE

WEATHER ROUNDUP FOR NEBRASKA
NATIONAL WEATHER SERVICE OMAHA NE
500 AM CDT SUN JUL 13 2014

NOTES: SATELLITE DATA IS BEING USED TO AUGMENT CLOUD COVER ABOVE
       12000 FEET.
       "FAIR" INDICATES FEW OR NO CLOUDS BELOW 12,000 FEET WITH NO
       SIGNIFICANT WEATHER AND/OR OBSTRUCTIONS TO VISIBILITY.

  * THESE STATIONS DO NOT REPORT WEATHER SUCH AS RAIN...SNOW OR FOG.

NEZ001>004-019>022-054>056-131100-
NEBRASKA PANHANDLE

CITY           SKY/WX    TMP DP  RH WIND       PRES   REMARKS
SCOTTSBLUFF    CLEAR     62  61  96 CALM      30.25S
ALLIANCE       PTCLDY    57  56  96 CALM      30.23F
CHADRON        CLEAR     56  55  97 SW6       30.21S
KIMBALL        PTCLDY    60  58  95 W3        30.28S
SIDNEY         PTCLDY    58  56  93 CALM      30.27S
$$

NEZ057>060-069>072-079>082-131100-
SOUTHWEST NEBRASKA

CITY           SKY/WX    TMP DP  RH WIND       PRES   REMARKS
NORTH PLATTE   CLEAR     60  58  92 CALM      30.18R
IMPERIAL       PTCLDY    63  60  90 CALM      30.21R
LEXINGTON      CLEAR     63  62  96 W5        30.15R FOG
MCCOOK         MOCLDY    65  64  97 SW5       30.18R
OGALLALA       CLEAR     60  59  97 W3        30.20S
$$

NEZ005>010-023>029-035>040-094-131100-
NORTH CENTRAL NEBRASKA

CITY           SKY/WX    TMP DP  RH WIND       PRES   REMARKS
VALENTINE      CLEAR     62  61  96 W6        30.13S
AINSWORTH      CLEAR     62  61  97 SW6       30.13R
BROKEN BOW     CLEAR     61  60  97 CALM      30.14R
O`NEILL        CLEAR     63  60  90 SW5       30.09R FOG
ORD            CLEAR     62  61  96 CALM      30.10S
THEDFORD       CLEAR     62  61  97 W3        30.17S
$$

NEZ041-046>049-061>064-073>077-083>087-131100-
SOUTH CENTRAL NEBRASKA

CITY           SKY/WX    TMP DP  RH WIND       PRES   REMARKS
GRAND ISLAND   CLEAR     65  63  93 W5        30.10S
AURORA         CLEAR     64  64 100 CALM      30.09R FOG
HASTINGS       CLEAR     67  62  84 N3        30.10R
HEBRON         MOCLDY    70  67  90 CALM      30.07R
HOLDREGE       CLEAR     64  62  95 NW5       30.14R FOG
KEARNEY *      CLEAR     64  63  94 W6        30.13R
YORK           PTCLDY    63  63 100 NW3       30.08S FOG
$$

NEZ011>018-030>034-042>045-131100-
NORTHEAST NEBRASKA

CITY           SKY/WX    TMP DP  RH WIND       PRES   REMARKS
NORFOLK        CLEAR     62  61  96 NW3       30.07R FOG
ALBION         CLEAR     62  61  96 CALM      30.09S
BLAIR          PTCLDY    65  63  91 W3        30.05R FOG
TEKAMAH        CLEAR     63  61  93 W5        30.03S
WAYNE          CLEAR     62  62  98 CALM      30.06S
$$

NEZ050>053-065>068-078-088>093-131100-
SOUTHEAST NEBRASKA

CITY           SKY/WX    TMP DP  RH WIND       PRES   REMARKS
LINCOLN        PTCLDY    66  63  90 CALM      30.06R
OMAHA EPPLEY   MOCLDY    68  65  90 N3        30.03S
BEATRICE       MOCLDY    66  66  99 N6        30.04S
FALLS CITY     CLOUDY    72  71  97 CALM      30.02S
NEBRASKA CITY  MOCLDY    68  68 100 CALM      30.04R
PLATTSMOUTH    PTCLDY    66  64  93 CALM      30.04S
$$

NEZ044-045-051>053-067-131100-
OMAHA AREA

CITY           SKY/WX    TMP DP  RH WIND       PRES   REMARKS
OMAHA EPPLEY   MOCLDY    68  65  90 N3        30.03S
BLAIR          PTCLDY    65  63  91 W3        30.05R FOG
MILLARD        PTCLDY    67  65  94 CALM      30.04R
OFFUTT AFB     PTCLDY    65  65 100 W7        30.03S
PLATTSMOUTH    PTCLDY    66  64  93 CALM      30.04S
WAHOO          FAIR      68  65  90 NW6       30.05R
$$



USA.gov is the U.S. government's official web portal to all federal, state and local government web resources and services.